Time,TemperatureF,DewpointF,PressureIn,WindDirection,WindDirectionDegrees,WindSpeedMPH,WindSpeedGustMPH,Humidity,HourlyPrecipIn,Conditions,Clouds,dailyrainin,SolarRadiationWatts/m^2,SoftwareType,DateUTC
2013-04-29 00:11:00,76.0,37.0,-100.00,SSE,155,5.0,7.0,24,-99.99,,,0.00,0.000000,,2013-04-29 07:11:00,
2013-04-29 00:21:00,76.0,37.0,-100.00,SSE,155,5.0,7.0,24,-99.99,,,0.00,0.000000,,2013-04-29 07:21:00,
2013-04-29 00:31:00,76.0,37.0,-100.00,SSE,155,5.0,7.0,24,-99.99,,,0.00,0.000000,,2013-04-29 07:31:00,
2013-04-29 00:41:00,76.0,37.0,-100.00,SSE,155,5.0,7.0,24,-99.99,,,0.00,0.000000,,2013-04-29 07:41:00,
2013-04-29 01:11:00,79.0,34.0,-100.00,South,173,5.0,8.0,20,0.00,,,0.00,0.000000,,2013-04-29 08:11:00,
2013-04-29 01:21:00,79.0,34.0,-100.00,South,173,5.0,8.0,20,0.00,,,0.00,0.000000,,2013-04-29 08:21:00,
2013-04-29 01:31:00,79.0,34.0,-100.00,South,173,5.0,8.0,20,0.00,,,0.00,0.000000,,2013-04-29 08:31:00,
2013-04-29 01:41:00,79.0,34.0,-100.00,South,173,5.0,8.0,20,0.00,,,0.00,0.000000,,2013-04-29 08:41:00,
2013-04-29 02:12:00,78.0,35.0,-100.00,South,186,6.0,9.0,21,0.00,,,0.00,0.000000,,2013-04-29 09:12:00,
2013-04-29 02:21:00,78.0,35.0,-100.00,South,186,6.0,9.0,21,0.00,,,0.00,0.000000,,2013-04-29 09:21:00,
2013-04-29 02:32:00,78.0,35.0,-100.00,South,186,6.0,9.0,21,0.00,,,0.00,0.000000,,2013-04-29 09:32:00,
2013-04-29 02:42:00,78.0,35.0,-100.00,South,186,6.0,9.0,21,0.00,,,0.00,0.000000,,2013-04-29 09:42:00,
2013-04-29 03:12:00,74.0,37.0,-100.00,SSE,161,5.0,9.0,26,0.00,,,0.00,0.000000,,2013-04-29 10:12:00,
2013-04-29 03:23:00,74.0,37.0,-100.00,SSE,161,5.0,9.0,26,0.00,,,0.00,0.000000,,2013-04-29 10:23:00,
2013-04-29 03:32:00,74.0,37.0,-100.00,SSE,161,5.0,9.0,26,0.00,,,0.00,0.000000,,2013-04-29 10:32:00,
2013-04-29 03:42:00,74.0,37.0,-100.00,SSE,161,5.0,9.0,26,0.00,,,0.00,0.000000,,2013-04-29 10:42:00,
2013-04-29 04:12:00,68.0,38.0,-100.00,SSE,149,3.0,8.0,33,0.00,,,0.00,0.000000,,2013-04-29 11:12:00,
2013-04-29 04:21:00,68.0,38.0,-100.00,SSE,149,3.0,8.0,33,0.00,,,0.00,0.000000,,2013-04-29 11:21:00,
2013-04-29 04:32:00,68.0,38.0,-100.00,SSE,149,3.0,8.0,33,0.00,,,0.00,0.000000,,2013-04-29 11:32:00,
2013-04-29 04:41:00,68.0,38.0,-100.00,SSE,149,3.0,8.0,33,0.00,,,0.00,0.000000,,2013-04-29 11:41:00,
2013-04-29 05:12:00,67.0,35.0,-100.00,SE,146,3.0,6.0,31,0.00,,,-99.99,0.000000,,2013-04-29 12:12:00,
2013-04-29 05:21:00,67.0,35.0,-100.00,SE,146,3.0,6.0,31,0.00,,,-99.99,0.000000,,2013-04-29 12:21:00,
2013-04-29 05:31:00,67.0,35.0,-100.00,SE,146,3.0,6.0,31,0.00,,,-99.99,0.000000,,2013-04-29 12:31:00,
2013-04-29 05:41:00,67.0,35.0,-100.00,SE,146,3.0,6.0,31,0.00,,,-99.99,0.000000,,2013-04-29 12:41:00,
2013-04-29 06:11:00,66.0,42.0,-100.00,SE,136,5.0,6.0,41,0.00,,,0.00,0.000000,,2013-04-29 13:11:00,
2013-04-29 06:21:00,66.0,42.0,-100.00,SE,136,5.0,6.0,41,0.00,,,0.00,0.000000,,2013-04-29 13:21:00,
2013-04-29 06:31:00,66.0,42.0,-100.00,SE,136,5.0,6.0,41,0.00,,,0.00,0.000000,,2013-04-29 13:31:00,
2013-04-29 06:42:00,66.0,42.0,-100.00,SE,136,5.0,6.0,41,0.00,,,0.00,0.000000,,2013-04-29 13:42:00,
2013-04-29 07:11:00,64.0,43.0,-100.00,SSE,150,2.0,5.0,47,0.00,,,0.00,62.000000,,2013-04-29 14:11:00,
2013-04-29 07:21:00,64.0,43.0,-100.00,SSE,150,2.0,5.0,47,0.00,,,0.00,62.000000,,2013-04-29 14:21:00,
2013-04-29 08:12:00,77.0,38.0,-100.00,SE,144,4.0,6.0,25,-99.99,,,0.00,285.000000,,2013-04-29 15:12:00,
2013-04-29 08:21:00,77.0,38.0,-100.00,SE,144,4.0,6.0,25,-99.99,,,0.00,285.000000,,2013-04-29 15:21:00,
2013-04-29 08:33:00,77.0,38.0,-100.00,SE,144,4.0,6.0,25,-99.99,,,0.00,285.000000,,2013-04-29 15:33:00,
2013-04-29 08:42:00,77.0,38.0,-100.00,SE,144,4.0,6.0,25,-99.99,,,0.00,285.000000,,2013-04-29 15:42:00,
2013-04-29 09:12:00,86.0,43.0,-100.00,SE,140,3.0,6.0,22,0.00,,,0.00,535.000000,,2013-04-29 16:12:00,
2013-04-29 09:23:00,86.0,43.0,-100.00,SE,140,3.0,6.0,22,0.00,,,0.00,535.000000,,2013-04-29 16:23:00,
2013-04-29 09:32:00,86.0,43.0,-100.00,SE,140,3.0,6.0,22,0.00,,,0.00,535.000000,,2013-04-29 16:32:00,
2013-04-29 09:42:00,86.0,43.0,-100.00,SE,140,3.0,6.0,22,0.00,,,0.00,535.000000,,2013-04-29 16:42:00,
2013-04-29 10:12:00,94.0,34.0,-100.00,NE,38,3.0,5.0,12,0.00,,,0.00,764.000000,,2013-04-29 17:12:00,
2013-04-29 10:22:00,94.0,34.0,-100.00,NE,38,3.0,5.0,12,0.00,,,0.00,764.000000,,2013-04-29 17:22:00,
2013-04-29 10:32:00,94.0,34.0,-100.00,NE,38,3.0,5.0,12,0.00,,,0.00,764.000000,,2013-04-29 17:32:00,
2013-04-29 10:42:00,94.0,34.0,-100.00,NE,38,3.0,5.0,12,0.00,,,0.00,764.000000,,2013-04-29 17:42:00,
2013-04-29 11:13:00,97.0,34.0,-100.00,NNE,18,5.0,8.0,11,0.00,,,0.00,951.000000,,2013-04-29 18:13:00,
2013-04-29 11:22:00,97.0,34.0,-100.00,NNE,18,5.0,8.0,11,0.00,,,0.00,951.000000,,2013-04-29 18:22:00,
2013-04-29 11:31:00,97.0,34.0,-100.00,NNE,18,5.0,8.0,11,0.00,,,0.00,951.000000,,2013-04-29 18:31:00,
2013-04-29 11:41:00,97.0,34.0,-100.00,NNE,18,5.0,8.0,11,0.00,,,0.00,951.000000,,2013-04-29 18:41:00,
2013-04-29 12:11:00,102.0,32.0,-100.00,SE,144,4.0,9.0,9,0.00,,,0.00,1074.000000,,2013-04-29 19:11:00,
2013-04-29 12:21:00,102.0,32.0,-100.00,SE,144,4.0,9.0,9,0.00,,,0.00,1074.000000,,2013-04-29 19:21:00,
2013-04-29 12:31:00,102.0,32.0,-100.00,SE,144,4.0,9.0,9,0.00,,,0.00,1074.000000,,2013-04-29 19:31:00,
2013-04-29 12:41:00,102.0,32.0,-100.00,SE,144,4.0,9.0,9,0.00,,,0.00,1074.000000,,2013-04-29 19:41:00,
2013-04-29 13:11:00,104.0,28.0,-100.00,SSE,155,3.0,8.0,7,0.00,,,0.00,1122.000000,,2013-04-29 20:11:00,
2013-04-29 13:21:00,104.0,28.0,-100.00,SSE,155,3.0,8.0,7,0.00,,,0.00,1122.000000,,2013-04-29 20:21:00,
2013-04-29 13:32:00,104.0,28.0,-100.00,SSE,155,3.0,8.0,7,0.00,,,0.00,1122.000000,,2013-04-29 20:32:00,
2013-04-29 13:42:00,104.0,28.0,-100.00,SSE,155,3.0,8.0,7,0.00,,,0.00,1122.000000,,2013-04-29 20:42:00,
2013-04-29 14:11:00,107.0,26.0,-100.00,NW,318,3.0,9.0,6,0.00,,,0.00,1100.000000,,2013-04-29 21:11:00,
2013-04-29 14:21:00,107.0,26.0,-100.00,NW,318,3.0,9.0,6,0.00,,,0.00,1100.000000,,2013-04-29 21:21:00,
2013-04-29 14:33:00,107.0,26.0,-100.00,NW,318,3.0,9.0,6,0.00,,,0.00,1100.000000,,2013-04-29 21:33:00,
2013-04-29 14:42:00,107.0,26.0,-100.00,NW,318,3.0,9.0,6,0.00,,,0.00,1100.000000,,2013-04-29 21:42:00,
2013-04-29 15:13:00,106.0,21.0,-100.00,South,188,7.0,26.0,5,0.00,,,0.00,1009.000000,,2013-04-29 22:13:00,
2013-04-29 15:23:00,106.0,21.0,-100.00,South,188,7.0,26.0,5,0.00,,,0.00,1009.000000,,2013-04-29 22:23:00,
2013-04-29 15:32:00,106.0,21.0,-100.00,South,188,7.0,26.0,5,0.00,,,0.00,1009.000000,,2013-04-29 22:32:00,
2013-04-29 15:42:00,106.0,21.0,-100.00,South,188,7.0,26.0,5,0.00,,,0.00,1009.000000,,2013-04-29 22:42:00,
2013-04-29 16:11:00,106.0,21.0,-100.00,WSW,243,8.0,16.0,5,0.00,,,0.00,850.000000,,2013-04-29 23:11:00,
2013-04-29 16:22:00,106.0,21.0,-100.00,WSW,243,8.0,16.0,5,0.00,,,0.00,850.000000,,2013-04-29 23:22:00,
2013-04-29 16:32:00,106.0,21.0,-100.00,WSW,243,8.0,16.0,5,0.00,,,0.00,850.000000,,2013-04-29 23:32:00,
2013-04-29 16:41:00,106.0,21.0,-100.00,WSW,243,8.0,16.0,5,0.00,,,0.00,850.000000,,2013-04-29 23:41:00,
2013-04-29 17:11:00,104.0,20.0,-100.00,SW,226,10.0,22.0,5,0.00,,,0.00,640.000000,,2013-04-30 00:11:00,
2013-04-29 17:21:00,104.0,20.0,-100.00,SW,226,10.0,22.0,5,0.00,,,0.00,640.000000,,2013-04-30 00:21:00,
2013-04-29 17:32:00,104.0,20.0,-100.00,SW,226,10.0,22.0,5,0.00,,,0.00,640.000000,,2013-04-30 00:32:00,
2013-04-29 17:41:00,104.0,20.0,-100.00,SW,226,10.0,22.0,5,0.00,,,0.00,640.000000,,2013-04-30 00:41:00,
2013-04-29 18:11:00,103.0,19.0,-100.00,SW,230,8.0,15.0,5,0.00,,,0.00,399.000000,,2013-04-30 01:11:00,
2013-04-29 18:21:00,103.0,19.0,-100.00,SW,230,8.0,15.0,5,0.00,,,0.00,399.000000,,2013-04-30 01:21:00,
2013-04-29 18:32:00,103.0,19.0,-100.00,SW,230,8.0,15.0,5,0.00,,,0.00,399.000000,,2013-04-30 01:32:00,
2013-04-29 18:41:00,103.0,19.0,-100.00,SW,230,8.0,15.0,5,0.00,,,0.00,399.000000,,2013-04-30 01:41:00,